DECAYED
Showing default

FACSAT-2, 56205 (Decayed)

Orbit data source: Space-Track

FACSAT-2, 56205 was a payload satellite owned by EMAVI (CO) in LEO that was launched on Sat, 15 Apr 2023 UTC via an FALCON 9 launch vehicle from the Air Force Western Test Range (AFWTR). Payload-class satellites include a variety of spacecraft equipped with specific instruments for various scientific and technological missions. These include communications satellites like Starlink; space stations such as the ISS; scientific satellites like the Hubble; Earth observation satellites from companies like Planet Labs, Umbra, and HawkEye 360; GPS; miniature CubeSats for education and research; and military/defense satellites.

Not visible in the next 10 days
Identifier
56205, 2023-054AD
Orbit
Decayed
Country
Flag of COCO / COL
Related business
Manufacturer
GOMSpace
Mission
Decayed Defense Imaging
Bus & Motor
CUBESAT 6U, Unknown motor
Mass
10 kg wet, ~10 kg dry
Launch date (UTC)
2023-04-15 (3 years ago)
Launch vehicle
FALCON 9
Launch site
Air Force Western Test Range (AFWTR)
Object type
Payload
Rocket body
Debris
Shape & HBR
Box + 2 Pan, 1.3 m
Radar Cross Section
0.211 m², Medium (>0.1 m² and < 1m²)

Expand to show TLE details & history
Last TLE update: 2 months ago

TLE from 2 months ago
0 FACSAT-2
1 56205U 23054AD  25300.42042571  .09741927  26127-5  82939-3 0  9993
2 56205  97.2857 219.0983 0005678 177.9723 182.1600 16.39589118143537
Epoch: 2025-10-27T10:05Z
TLE epoch observation values (Epoch: 2025-10-27T10:05:24.781Z)
Latitude
-0.00007°
Longitude
31.72253°
Altitude
173.864 km
Speed
7.8 km/s
True Right ascension
14h 36m 23s
True Declination
0° 00' 00"
Sunlit
Object was in daylight at epoch
Visualization orbit readout
Latitude
Unknown
Longitude
Unknown
Altitude
Unknown
Speed
Unknown
Apparent Right ascension
Unknown
Apparent Declination
Unknown
Sunlit
N/A
Visualization observer readout
Local Sidereal Time
16:22:39
Azimuth
Unknown
Elevation
Unknown
Doppler factor
Unknown
Orbital elements
Apogee altitude
167.413 km
Perigee altitude
159.984 km
Semi-major axis
6,541.836 km
Eccentricity
0.00057
Inclination
97.2857°
RAAN
219.0983°
Arg. of periapsis
177.9723°
True anomaly
182.15755°
Mean anomaly
182.16°
Eccentric anomaly
182.15877°
Mean motion
4.10198 °/min
Orbital period
87.76 mins
BSTAR
0.00082939
Loading maneuver chart data...
Computing Atmospheric mass density...
Loading historical data...
Loading historical data...
Loading historical data...
Loading historical data...
Loading historical data...
Loading historical data...
Loading historical data...

Documentation

Showing up to 5 results
|